Location: Unspecified
(0.0000°N, 0.0000°E)
Time: 13:58:25
(UTC+00:00)

FORMOSAT 3A - Pass Details

Date: 24 May 2026
Orbit: 751 x 823 km, 72.0° (Epoch: 5 June)

Event Time Altitude Azimuth Distance (km) Brightness Sun altitude
Rises 18:57:38 0° 5° (N) 3,309 10.5 -14.2°
Reaches altitude 10° 19:00:22 10° 17° (NNE) 2,370 9.6 -14.8°
Maximum altitude 19:04:58 28° 75° (ENE) 1,438 8.0 -15.9°
Enters shadow 19:06:22 25° 101° (E) 1,543 8.0 -16.2°
